Total_Precipitation_Accumulation
0.58 0.56 0.57 0.59 0.60 0.60 0.58 0.58 0.64 0.71 0.83 1.03 1.32 1.71 1.93 2.06 2.05 2.06 1.96 1.74 1.52 1.53 1.71 1.69 1.66 1.66 1.66 1.63 1.58 1.73 1.68 1.43 1.35 1.55 1.54 1.38 1.21 1.16 1.15 1.21 1.44 1.56 1.48
0.53 0.47 0.44 0.45 0.45 0.44 0.47 0.58 0.59 0.66 0.79 1.06 1.33 1.64 1.98 2.05 2.06 2.06 2.02 1.89 1.75 1.76 1.80 2.01 2.11 2.09 2.21 2.19 2.01 2.16 2.20 1.82 1.58 1.86 2.19 1.91 1.68 1.27 1.18 1.31 1.37 1.48 1.56
0.45 0.43 0.39 0.37 0.36 0.32 0.30 0.43 0.52 0.66 0.93 1.26 1.53 1.69 1.96 2.04 2.08 2.04 2.05 2.07 2.01 1.91 1.93 2.05 2.22 2.24 2.32 2.44 2.52 2.46 2.57 2.38 1.98 1.85 2.15 2.10 1.95 1.74 1.38 1.33 1.41 1.58 1.63
0.40 0.39 0.41 0.38 0.31 0.26 0.24 0.31 0.40 0.63 1.01 1.35 1.57 1.81 2.17 2.22 2.13 2.14 2.12 2.12 2.14 2.10 2.18 2.20 2.33 2.34 2.36 2.47 2.57 2.53 2.68 2.77 2.38 2.07 1.86 1.71 1.72 1.86 1.68 1.47 1.43 1.59 1.62
0.33 0.32 0.33 0.33 0.32 0.31 0.31 0.36 0.49 0.71 1.01 1.24 1.50 1.86 2.11 2.18 2.27 2.17 2.12 2.12 2.19 2.21 2.25 2.32 2.50 2.48 2.46 2.45 2.65 2.70 2.80 2.73 2.65 2.50 2.32 2.16 1.92 1.58 1.70 1.77 1.64 1.54 1.44
0.32 0.33 0.34 0.34 0.36 0.37 0.42 0.52 0.68 0.81 1.03 1.24 1.48 1.67 1.90 2.02 2.12 2.18 2.10 2.08 2.14 2.24 2.14 2.06 2.21 2.28 2.32 2.32 2.50 2.67 2.81 2.79 2.81 2.73 2.44 2.39 2.26 1.91 1.85 1.75 1.66 1.68 1.49
0.41 0.44 0.45 0.52 0.59 0.62 0.64 0.72 0.83 0.95 1.06 1.19 1.32 1.39 1.53 1.68 1.70 1.84 1.91 2.02 2.01 2.08 2.11 2.00 1.98 2.02 1.98 2.03 2.15 2.22 2.29 2.44 2.60 2.51 2.30 2.26 2.10 2.06 2.09 2.00 1.78 1.63 1.41
0.57 0.67 0.73 0.81 0.89 0.90 0.90 0.96 1.01 1.03 1.05 1.11 1.18 1.22 1.26 1.35 1.40 1.42 1.42 1.58 1.72 1.76 1.85 1.85 1.79 1.83 1.87 1.88 1.97 2.00 2.00 2.03 2.11 2.10 2.19 2.26 2.11 2.03 1.98 2.03 2.19 1.97 1.73
0.83 0.92 1.04 1.04 1.03 1.02 0.98 1.00 1.04 1.01 1.01 1.05 1.05 1.00 0.98 1.03 1.14 1.16 1.21 1.25 1.32 1.33 1.40 1.49 1.56 1.65 1.69 1.75 1.91 2.00 1.99 1.95 1.92 2.01 2.08 2.04 2.02 2.01 1.90 1.88 2.05 2.16 2.01
1.18 1.29 1.38 1.31 1.21 1.22 1.27 1.16 1.07 0.99 0.95 0.96 0.99 0.90 0.87 0.92 0.97 0.94 0.99 0.98 1.00 1.02 1.06 1.17 1.33 1.56 1.68 1.71 1.79 1.86 1.95 1.98 1.93 2.02 2.12 2.15 2.15 2.16 2.09 1.96 1.95 1.92 1.97
1.58 1.67 1.68 1.58 1.39 1.27 1.26 1.19 1.06 0.94 0.83 0.82 0.90 0.91 0.84 0.85 0.90 0.88 0.81 0.76 0.80 0.86 0.98 1.02 1.17 1.32 1.50 1.68 1.82 1.84 1.85 1.89 1.88 1.82 1.92 2.04 2.13 2.25 2.27 2.25 2.13 2.00 1.95
1.49 1.52 1.48 1.46 1.34 1.24 1.15 1.11 0.99 0.83 0.77 0.82 0.84 0.86 0.78 0.73 0.78 0.79 0.81 0.71 0.68 0.70 0.77 0.91 1.11 1.23 1.31 1.36 1.44 1.52 1.58 1.63 1.69 1.67 1.64 1.71 1.81 1.97 2.12 2.21 2.15 2.14 2.03
1.19 1.28 1.32 1.20 1.14 1.07 1.01 1.10 1.11 0.97 0.93 0.96 1.02 0.94 0.81 0.76 0.76 0.75 0.80 0.73 0.68 0.69 0.72 0.85 1.00 1.06 1.12 1.16 1.17 1.28 1.37 1.38 1.38 1.45 1.41 1.42 1.50 1.65 1.80 1.90 1.98 2.09 2.11
1.03 1.04 1.09 1.04 1.05 0.98 0.94 1.06 1.12 1.11 1.15 1.20 1.18 1.02 0.90 0.81 0.74 0.72 0.74 0.72 0.72 0.73 0.75 0.90 0.98 1.00 0.96 1.05 1.08 1.14 1.17 1.14 1.09 1.14 1.15 1.19 1.24 1.33 1.47 1.62 1.83 2.01 2.11
0.85 0.78 0.75 0.76 0.80 0.78 0.74 0.80 0.91 1.00 1.11 1.17 1.07 0.96 0.86 0.74 0.68 0.71 0.68 0.71 0.77 0.76 0.78 0.83 0.93 0.97 0.95 0.99 1.05 1.04 0.98 0.98 0.97 0.92 0.83 0.85 0.93 0.97 1.06 1.10 1.39 1.64 1.86
0.59 0.56 0.51 0.51 0.55 0.49 0.49 0.54 0.65 0.81 1.00 1.08 0.97 0.82 0.74 0.72 0.66 0.63 0.59 0.59 0.62 0.64 0.66 0.70 0.86 0.97 0.87 0.98 0.98 0.90 0.83 0.80 0.85 0.81 0.74 0.72 0.76 0.69 0.67 0.71 0.93 1.22 1.42
0.48 0.50 0.49 0.45 0.47 0.43 0.43 0.51 0.59 0.73 0.81 0.83 0.77 0.67 0.62 0.59 0.54 0.51 0.52 0.54 0.55 0.56 0.60 0.63 0.78 0.87 0.95 0.89 0.74 0.78 0.77 0.78 0.82 0.84 0.86 0.78 0.73 0.82 0.73 0.67 0.74 0.82 0.93
0.40 0.43 0.44 0.44 0.47 0.51 0.52 0.60 0.66 0.67 0.70 0.73 0.72 0.64 0.58 0.53 0.48 0.45 0.47 0.56 0.57 0.54 0.57 0.60 0.63 0.71 0.84 0.78 0.63 0.67 0.66 0.77 0.86 0.90 0.97 0.99 0.93 0.91 0.98 0.92 0.92 0.89 0.81
0.24 0.25 0.27 0.29 0.35 0.39 0.43 0.44 0.46 0.48 0.50 0.53 0.57 0.51 0.44 0.46 0.50 0.48 0.52 0.55 0.56 0.58 0.58 0.61 0.62 0.67 0.72 0.69 0.62 0.64 0.70 0.84 0.86 0.82 0.93 0.98 0.94 1.00 1.06 1.16 1.22 1.15 0.99
0.15 0.14 0.14 0.16 0.18 0.22 0.32 0.37 0.34 0.29 0.29 0.30 0.36 0.36 0.34 0.37 0.44 0.55 0.61 0.57 0.53 0.57 0.58 0.56 0.54 0.56 0.58 0.64 0.56 0.67 0.77 0.82 0.84 0.85 0.91 1.06 0.99 0.97 0.94 1.02 1.16 1.14 1.01
0.13 0.14 0.12 0.13 0.15 0.20 0.23 0.26 0.31 0.27 0.24 0.23 0.25 0.26 0.29 0.32 0.41 0.47 0.45 0.44 0.46 0.48 0.50 0.53 0.51 0.51 0.58 0.70 0.70 0.75 0.76 0.81 0.87 0.96 1.01 0.99 1.08 0.92 0.88 0.89 0.90 0.99 0.98
0.10 0.10 0.11 0.13 0.16 0.17 0.16 0.18 0.21 0.22 0.23 0.21 0.21 0.22 0.22 0.22 0.26 0.32 0.36 0.38 0.39 0.39 0.39 0.41 0.40 0.43 0.55 0.63 0.65 0.68 0.72 0.79 0.79 0.85 0.86 0.83 0.93 0.79 0.70 0.64 0.70 0.77 0.83
0.07 0.08 0.12 0.15 0.17 0.16 0.14 0.15 0.17 0.20 0.24 0.23 0.20 0.19 0.20 0.20 0.22 0.27 0.31 0.34 0.37 0.38 0.35 0.33 0.35 0.39 0.43 0.51 0.54 0.54 0.53 0.55 0.58 0.57 0.67 0.70 0.68 0.63 0.56 0.60 0.64 0.66 0.69
0.06 0.08 0.13 0.15 0.16 0.16 0.17 0.18 0.18 0.18 0.20 0.19 0.19 0.19 0.20 0.21 0.20 0.24 0.30 0.36 0.36 0.32 0.31 0.33 0.35 0.40 0.43 0.43 0.43 0.45 0.45 0.44 0.49 0.48 0.51 0.53 0.51 0.52 0.54 0.56 0.60 0.66 0.70
0.07 0.09 0.11 0.14 0.15 0.17 0.19 0.20 0.19 0.17 0.18 0.17 0.16 0.17 0.18 0.20 0.20 0.19 0.21 0.27 0.30 0.28 0.30 0.33 0.36 0.40 0.43 0.40 0.36 0.36 0.41 0.46 0.51 0.57 0.53 0.51 0.52 0.53 0.59 0.61 0.60 0.64 0.68
0.07 0.08 0.09 0.11 0.13 0.15 0.19 0.21 0.23 0.22 0.20 0.18 0.17 0.18 0.18 0.19 0.17 0.17 0.18 0.21 0.21 0.24 0.24 0.23 0.25 0.24 0.23 0.25 0.24 0.25 0.29 0.36 0.42 0.56 0.64 0.67 0.73 0.75 0.73 0.71 0.62 0.58 0.59